Time,TemperatureF,DewpointF,PressureIn,WindDirection,WindDirectionDegrees,WindSpeedMPH,WindSpeedGustMPH,Humidity,HourlyPrecipIn,Conditions,Clouds,dailyrainin,SoftwareType,DateUTC
2013-10-04 00:00:00,66.7,60.0,29.19,SSW,212,0.0,2.0,79,0.00,CLR,,0.00,WeatherDisplay:10.37,2013-10-04 05:00:00,
2013-10-04 00:10:00,66.5,59.8,29.20,SSW,213,0.0,2.0,79,0.00,CLR,,0.00,WeatherDisplay:10.37,2013-10-04 05:10:00,
2013-10-04 00:20:00,66.3,59.6,29.19,SSW,213,0.0,3.0,79,0.00,CLR,,0.00,WeatherDisplay:10.37,2013-10-04 05:20:00,
2013-10-04 00:30:00,66.0,59.3,29.19,SSW,206,0.0,3.0,79,0.00,CLR,,0.00,WeatherDisplay:10.37,2013-10-04 05:30:00,
2013-10-04 00:40:00,65.7,59.4,29.20,SSW,206,0.0,4.0,80,0.00,CLR,,0.00,WeatherDisplay:10.37,2013-10-04 05:40:00,
2013-10-04 00:50:00,65.6,59.3,29.20,SSW,205,0.0,2.0,80,0.00,CLR,,0.00,WeatherDisplay:10.37,2013-10-04 05:50:00,
2013-10-04 01:00:00,65.4,59.4,29.19,South,187,1.0,5.0,81,0.00,CLR,,0.00,WeatherDisplay:10.37,2013-10-04 06:00:00,
2013-10-04 01:10:00,65.3,59.3,29.20,SSE,166,0.0,3.0,81,0.00,CLR,,0.00,WeatherDisplay:10.37,2013-10-04 06:10:00,
2013-10-04 01:20:00,65.2,59.3,29.20,SSE,166,0.0,2.0,81,0.00,CLR,,0.00,WeatherDisplay:10.37,2013-10-04 06:20:00,
2013-10-04 01:30:00,65.3,59.3,29.21,SSE,166,0.0,1.0,81,0.00,CLR,,0.00,WeatherDisplay:10.37,2013-10-04 06:30:00,
2013-10-04 01:40:00,65.3,59.3,29.20,SSE,166,0.0,3.0,81,0.00,CLR,,0.00,WeatherDisplay:10.37,2013-10-04 06:40:00,
2013-10-04 01:50:00,65.3,59.3,29.20,SSE,166,0.0,2.0,81,0.00,CLR,,0.00,WeatherDisplay:10.37,2013-10-04 06:50:00,
2013-10-04 02:00:00,65.2,59.3,29.20,SSE,166,0.0,3.0,81,0.00,CLR,,0.00,WeatherDisplay:10.37,2013-10-04 07:00:00,
2013-10-04 02:10:00,65.2,59.3,29.20,SSE,166,0.0,2.0,81,0.00,CLR,,0.00,WeatherDisplay:10.37,2013-10-04 07:10:00,
2013-10-04 02:20:00,65.1,59.1,29.21,SSE,166,0.0,0.0,81,0.00,CLR,,0.00,WeatherDisplay:10.37,2013-10-04 07:20:00,
2013-10-04 02:30:00,65.1,58.8,29.21,SSE,166,0.0,0.0,80,0.00,CLR,,0.00,WeatherDisplay:10.37,2013-10-04 07:30:00,
2013-10-04 02:40:00,65.2,59.2,29.20,SSE,166,0.0,0.0,81,0.00,CLR,,0.00,WeatherDisplay:10.37,2013-10-04 07:40:00,
2013-10-04 02:50:00,65.1,59.1,29.20,SSE,166,0.0,0.0,81,0.00,CLR,,0.00,WeatherDisplay:10.37,2013-10-04 07:50:00,
2013-10-04 03:00:00,64.9,59.3,29.20,SSE,166,0.0,0.0,82,0.00,CLR,,0.00,WeatherDisplay:10.37,2013-10-04 08:00:00,
2013-10-04 03:10:00,64.8,58.8,29.21,SSE,166,0.0,0.0,81,0.00,CLR,,0.00,WeatherDisplay:10.37,2013-10-04 08:10:00,
2013-10-04 03:20:00,64.6,59.0,29.22,SSE,166,0.0,0.0,82,0.00,CLR,,0.00,WeatherDisplay:10.37,2013-10-04 08:20:00,
2013-10-04 03:30:00,64.6,59.0,29.20,South,174,0.0,2.0,82,0.00,CLR,,0.00,WeatherDisplay:10.37,2013-10-04 08:30:00,
2013-10-04 03:40:00,64.6,59.3,29.22,South,180,0.0,1.0,83,0.00,CLR,,0.00,WeatherDisplay:10.37,2013-10-04 08:40:00,
2013-10-04 03:50:00,64.6,59.3,29.23,South,180,0.0,0.0,83,0.00,CLR,,0.00,WeatherDisplay:10.37,2013-10-04 08:50:00,
2013-10-04 04:00:00,64.6,59.3,29.23,South,180,0.0,0.0,83,0.00,CLR,,0.00,WeatherDisplay:10.37,2013-10-04 09:00:00,
2013-10-04 04:10:00,64.8,59.5,29.23,South,180,0.0,0.0,83,0.00,CLR,,0.00,WeatherDisplay:10.37,2013-10-04 09:10:00,
2013-10-04 04:20:00,64.6,59.3,29.23,South,180,0.0,0.0,83,0.00,CLR,,0.00,WeatherDisplay:10.37,2013-10-04 09:20:00,
2013-10-04 04:30:00,64.8,59.9,29.23,South,180,0.0,0.0,84,0.00,CLR,,0.00,WeatherDisplay:10.37,2013-10-04 09:30:00,
2013-10-04 04:40:00,64.8,59.5,29.24,South,180,0.0,0.0,83,0.00,CLR,,0.00,WeatherDisplay:10.37,2013-10-04 09:40:00,
2013-10-04 04:50:00,64.8,59.9,29.25,South,180,0.0,1.0,84,0.00,CLR,,0.00,WeatherDisplay:10.37,2013-10-04 09:50:00,
2013-10-04 05:00:00,64.8,59.9,29.26,South,183,0.0,2.0,84,0.00,CLR,,0.00,WeatherDisplay:10.37,2013-10-04 10:00:00,
2013-10-04 05:10:00,64.9,59.9,29.26,South,183,0.0,2.0,84,0.00,CLR,,0.00,WeatherDisplay:10.37,2013-10-04 10:10:00,
2013-10-04 05:20:00,65.3,60.3,29.25,South,183,0.0,3.0,84,0.00,CLR,,0.00,WeatherDisplay:10.37,2013-10-04 10:20:00,
2013-10-04 05:30:00,65.3,60.0,29.24,South,183,0.0,2.0,83,0.00,CLR,,0.00,WeatherDisplay:10.37,2013-10-04 10:30:00,
2013-10-04 05:40:00,65.4,60.4,29.24,South,183,0.0,1.0,84,0.00,CLR,,0.00,WeatherDisplay:10.37,2013-10-04 10:40:00,
2013-10-04 05:50:00,65.4,60.4,29.24,South,183,0.0,2.0,84,0.00,CLR,,0.00,WeatherDisplay:10.37,2013-10-04 10:50:00,
2013-10-04 06:00:00,65.4,60.1,29.23,South,179,0.0,3.0,83,0.00,CLR,,0.00,WeatherDisplay:10.37,2013-10-04 11:00:00,
2013-10-04 06:10:00,65.4,60.4,29.23,South,179,0.0,1.0,84,0.00,CLR,,0.00,WeatherDisplay:10.37,2013-10-04 11:10:00,
2013-10-04 06:20:00,65.3,60.3,29.22,South,179,0.0,1.0,84,0.00,CLR,,0.00,WeatherDisplay:10.37,2013-10-04 11:20:00,
2013-10-04 06:30:00,65.1,60.1,29.22,South,179,0.0,1.0,84,0.00,CLR,,0.00,WeatherDisplay:10.37,2013-10-04 11:30:00,
2013-10-04 06:40:00,65.0,60.0,29.22,South,179,0.0,2.0,84,0.00,CLR,,0.00,WeatherDisplay:10.37,2013-10-04 11:40:00,
2013-10-04 06:50:00,64.9,59.9,29.21,South,180,0.0,3.0,84,0.00,CLR,,0.00,WeatherDisplay:10.37,2013-10-04 11:50:00,
2013-10-04 07:00:00,64.8,59.9,29.21,South,180,0.0,3.0,84,0.00,CLR,,0.00,WeatherDisplay:10.37,2013-10-04 12:00:00,
2013-10-04 07:10:00,64.8,59.9,29.21,South,180,0.0,1.0,84,0.00,CLR,,0.00,WeatherDisplay:10.37,2013-10-04 12:10:00,
2013-10-04 07:20:00,64.9,59.9,29.21,South,180,0.0,3.0,84,0.00,CLR,,0.00,WeatherDisplay:10.37,2013-10-04 12:20:00,
2013-10-04 07:30:00,65.1,60.1,29.21,South,178,0.0,2.0,84,0.00,CLR,,0.00,WeatherDisplay:10.37,2013-10-04 12:30:00,
2013-10-04 07:40:00,65.1,60.1,29.22,South,174,0.0,3.0,84,0.00,CLR,,0.00,WeatherDisplay:10.37,2013-10-04 12:40:00,
2013-10-04 07:50:00,65.3,60.3,29.23,South,174,0.0,3.0,84,0.00,CLR,,0.00,WeatherDisplay:10.37,2013-10-04 12:50:00,
2013-10-04 08:00:00,65.5,60.6,29.23,South,175,0.0,3.0,84,0.00,CLR,,0.00,WeatherDisplay:10.37,2013-10-04 13:00:00,
2013-10-04 08:10:00,66.1,61.2,29.24,South,176,0.0,2.0,84,0.00,CLR,,0.00,WeatherDisplay:10.37,2013-10-04 13:10:00,
2013-10-04 08:20:00,66.5,60.8,29.24,South,176,0.0,0.0,82,0.00,CLR,,0.00,WeatherDisplay:10.37,2013-10-04 13:20:00,
2013-10-04 08:30:00,67.0,61.0,29.24,South,177,0.0,3.0,81,0.00,CLR,,0.00,WeatherDisplay:10.37,2013-10-04 13:30:00,
2013-10-04 08:40:00,67.4,61.0,29.24,South,177,0.0,2.0,80,0.00,CLR,,0.00,WeatherDisplay:10.37,2013-10-04 13:40:00,
2013-10-04 08:50:00,68.0,61.6,29.26,South,178,0.0,2.0,80,0.00,CLR,,0.00,WeatherDisplay:10.37,2013-10-04 13:50:00,
2013-10-04 09:00:00,68.3,61.2,29.26,North,359,0.0,4.0,78,0.00,CLR,,0.00,WeatherDisplay:10.37,2013-10-04 14:00:00,
2013-10-04 09:10:00,68.4,61.3,29.26,North,351,0.0,5.0,78,0.00,CLR,,0.00,WeatherDisplay:10.37,2013-10-04 14:10:00,
2013-10-04 09:20:00,68.5,61.4,29.26,NNW,342,0.0,2.0,78,0.00,CLR,,0.00,WeatherDisplay:10.37,2013-10-04 14:20:00,
2013-10-04 09:30:00,68.5,61.0,29.27,NNW,343,0.0,3.0,77,0.00,CLR,,0.00,WeatherDisplay:10.37,2013-10-04 14:30:00,
2013-10-04 09:40:00,68.4,60.9,29.27,NNW,343,0.0,1.0,77,0.00,CLR,,0.00,WeatherDisplay:10.37,2013-10-04 14:40:00,
2013-10-04 09:50:00,68.6,61.1,29.26,NNW,343,0.0,0.0,77,0.00,CLR,,0.00,WeatherDisplay:10.37,2013-10-04 14:50:00,
2013-10-04 10:00:00,69.0,61.1,29.26,NNW,343,0.0,0.0,76,0.00,CLR,,0.00,WeatherDisplay:10.37,2013-10-04 15:00:00,
2013-10-04 10:10:00,69.7,61.8,29.25,NNW,337,0.0,2.0,76,0.00,CLR,,0.00,WeatherDisplay:10.37,2013-10-04 15:10:00,
2013-10-04 10:20:00,70.4,61.7,29.26,NW,322,0.0,1.0,74,0.00,CLR,,0.00,WeatherDisplay:10.37,2013-10-04 15:20:00,
2013-10-04 10:30:00,71.0,62.3,29.26,NW,311,0.0,0.0,74,0.00,CLR,,0.00,WeatherDisplay:10.37,2013-10-04 15:30:00,
2013-10-04 10:40:00,71.5,62.4,29.26,NW,311,0.0,0.0,73,0.00,CLR,,0.00,WeatherDisplay:10.37,2013-10-04 15:40:00,
2013-10-04 10:50:00,71.5,62.8,29.25,NW,311,0.0,0.0,74,0.00,CLR,,0.00,WeatherDisplay:10.37,2013-10-04 15:50:00,
2013-10-04 11:00:00,71.3,63.0,29.26,NW,311,0.0,1.0,75,0.00,CLR,,0.00,WeatherDisplay:10.37,2013-10-04 16:00:00,
2013-10-04 11:10:00,71.2,62.9,29.25,NW,312,0.0,0.0,75,0.00,CLR,,0.00,WeatherDisplay:10.37,2013-10-04 16:10:00,
2013-10-04 11:20:00,71.0,62.7,29.26,NW,315,0.0,2.0,75,0.00,CLR,,0.00,WeatherDisplay:10.37,2013-10-04 16:20:00,
2013-10-04 11:30:00,70.9,63.3,29.26,NNW,339,0.0,1.0,77,0.00,CLR,,0.00,WeatherDisplay:10.37,2013-10-04 16:30:00,
2013-10-04 11:40:00,71.0,63.4,29.26,North,2,0.0,2.0,77,0.00,CLR,,0.00,WeatherDisplay:10.37,2013-10-04 16:40:00,
2013-10-04 11:50:00,71.2,63.6,29.26,North,5,0.0,2.0,77,0.00,CLR,,0.00,WeatherDisplay:10.37,2013-10-04 16:50:00,
2013-10-04 12:00:00,71.2,63.6,29.26,NE,42,0.0,2.0,77,0.00,CLR,,0.00,WeatherDisplay:10.37,2013-10-04 17:00:00,
2013-10-04 12:10:00,71.2,64.0,29.27,NE,42,0.0,0.0,78,0.00,CLR,,0.00,WeatherDisplay:10.37,2013-10-04 17:10:00,
2013-10-04 12:20:00,71.2,64.0,29.27,SE,146,0.0,3.0,78,0.00,CLR,,0.00,WeatherDisplay:10.37,2013-10-04 17:20:00,
2013-10-04 12:30:00,71.2,64.4,29.27,South,187,0.0,3.0,79,0.00,CLR,,0.00,WeatherDisplay:10.37,2013-10-04 17:30:00,
2013-10-04 13:00:00,71.5,64.6,29.28,SSW,194,0.0,0.0,79,0.00,CLR,,0.00,WeatherDisplay:10.37,2013-10-04 18:00:00,
2013-10-04 13:10:00,71.7,64.5,29.28,SSW,194,0.0,0.0,78,0.00,CLR,,0.00,WeatherDisplay:10.37,2013-10-04 18:10:00,
2013-10-04 13:20:00,71.7,64.5,29.28,SSW,194,0.0,0.0,78,0.00,CLR,,0.00,WeatherDisplay:10.37,2013-10-04 18:20:00,
2013-10-04 13:30:00,71.7,64.8,29.27,SSW,194,0.0,0.0,79,0.00,CLR,,0.00,WeatherDisplay:10.37,2013-10-04 18:30:00,
2013-10-04 13:40:00,71.8,64.6,29.27,SSW,195,0.0,1.0,78,0.00,CLR,,0.00,WeatherDisplay:10.37,2013-10-04 18:40:00,
2013-10-04 13:50:00,71.7,64.5,29.27,SSW,195,0.0,2.0,78,0.00,CLR,,0.00,WeatherDisplay:10.37,2013-10-04 18:50:00,
2013-10-04 14:00:00,71.5,64.3,29.26,SSW,195,0.0,1.0,78,0.00,CLR,,0.00,WeatherDisplay:10.37,2013-10-04 19:00:00,
2013-10-04 14:10:00,71.5,64.3,29.26,SSW,195,0.0,0.0,78,0.00,CLR,,0.00,WeatherDisplay:10.37,2013-10-04 19:10:00,
2013-10-04 14:20:00,71.5,64.3,29.26,SE,141,0.0,0.0,78,0.00,CLR,,0.00,WeatherDisplay:10.37,2013-10-04 19:20:00,
2013-10-04 14:30:00,71.5,64.6,29.25,SE,135,0.0,0.0,79,0.00,CLR,,0.00,WeatherDisplay:10.37,2013-10-04 19:30:00,
2013-10-04 14:40:00,71.5,64.6,29.26,SE,135,0.0,0.0,79,0.00,CLR,,0.00,WeatherDisplay:10.37,2013-10-04 19:40:00,
2013-10-04 14:50:00,71.3,64.8,29.26,SE,135,0.0,0.0,80,0.00,CLR,,0.00,WeatherDisplay:10.37,2013-10-04 19:50:00,
2013-10-04 15:00:00,71.2,65.1,29.26,SE,135,0.0,0.0,81,0.00,CLR,,0.00,WeatherDisplay:10.37,2013-10-04 20:00:00,
2013-10-04 15:10:00,71.3,65.2,29.26,SE,135,0.0,0.0,81,0.00,CLR,,0.00,WeatherDisplay:10.37,2013-10-04 20:10:00,
2013-10-04 15:20:00,71.5,65.7,29.26,SE,135,0.0,0.0,82,0.00,CLR,,0.00,WeatherDisplay:10.37,2013-10-04 20:20:00,
2013-10-04 15:30:00,71.9,66.1,29.26,SE,135,0.0,0.0,82,0.00,CLR,,0.00,WeatherDisplay:10.37,2013-10-04 20:30:00,
2013-10-04 15:40:00,72.2,66.0,29.24,SE,135,0.0,3.0,81,0.00,CLR,,0.00,WeatherDisplay:10.37,2013-10-04 20:40:00,
2013-10-04 15:50:00,72.2,65.7,29.24,SE,135,0.0,0.0,80,0.00,CLR,,0.00,WeatherDisplay:10.37,2013-10-04 20:50:00,
2013-10-04 16:00:00,72.4,65.9,29.24,SE,135,0.0,0.0,80,0.00,CLR,,0.00,WeatherDisplay:10.37,2013-10-04 21:00:00,
2013-10-04 16:10:00,72.4,65.9,29.21,SE,141,1.0,3.0,80,0.00,CLR,,0.00,WeatherDisplay:10.37,2013-10-04 21:10:00,
2013-10-04 16:20:00,71.8,65.0,29.21,SE,145,0.0,5.0,79,0.00,CLR,,0.00,WeatherDisplay:10.37,2013-10-04 21:20:00,
2013-10-04 16:30:00,71.5,65.0,29.22,SSE,149,0.0,2.0,80,0.00,CLR,,0.00,WeatherDisplay:10.37,2013-10-04 21:30:00,
2013-10-04 16:40:00,71.5,65.4,29.22,SSE,149,0.0,2.0,81,0.00,CLR,,0.00,WeatherDisplay:10.37,2013-10-04 21:40:00,
2013-10-04 16:50:00,71.7,65.5,29.22,SSE,149,0.0,2.0,81,0.00,CLR,,0.00,WeatherDisplay:10.37,2013-10-04 21:50:00,
2013-10-04 17:00:00,71.7,65.2,29.21,SSE,149,0.0,3.0,80,0.00,CLR,,0.00,WeatherDisplay:10.37,2013-10-04 22:00:00,
2013-10-04 17:10:00,71.5,65.0,29.22,SSE,148,0.0,1.0,80,0.00,CLR,,0.00,WeatherDisplay:10.37,2013-10-04 22:10:00,
2013-10-04 17:20:00,71.2,64.7,29.21,SSE,148,0.0,3.0,80,0.00,CLR,,0.00,WeatherDisplay:10.37,2013-10-04 22:20:00,
2013-10-04 17:30:00,71.0,64.9,29.22,SSE,148,0.0,1.0,81,0.00,CLR,,0.00,WeatherDisplay:10.37,2013-10-04 22:30:00,
2013-10-04 17:40:00,70.8,64.7,29.22,SSE,148,0.0,2.0,81,0.00,CLR,,0.00,WeatherDisplay:10.37,2013-10-04 22:40:00,
2013-10-04 17:50:00,70.5,64.4,29.21,SE,129,1.0,4.0,81,0.00,CLR,,0.00,WeatherDisplay:10.37,2013-10-04 22:50:00,
2013-10-04 18:00:00,70.3,64.6,29.22,East,86,0.0,3.0,82,0.00,CLR,,0.00,WeatherDisplay:10.37,2013-10-04 23:00:00,
2013-10-04 18:10:00,70.3,64.2,29.22,East,86,0.0,2.0,81,0.00,CLR,,0.00,WeatherDisplay:10.37,2013-10-04 23:10:00,
2013-10-04 18:20:00,70.0,63.9,29.23,ESE,102,0.0,4.0,81,0.00,CLR,,0.00,WeatherDisplay:10.37,2013-10-04 23:20:00,
2013-10-04 18:30:00,69.7,64.0,29.24,ESE,104,0.0,3.0,82,0.00,CLR,,0.00,WeatherDisplay:10.37,2013-10-04 23:30:00,
2013-10-04 18:40:00,69.3,63.6,29.24,ESE,104,1.0,3.0,82,0.00,CLR,,0.00,WeatherDisplay:10.37,2013-10-04 23:40:00,
2013-10-04 18:50:00,69.0,63.3,29.24,SSE,151,1.0,3.0,82,0.00,CLR,,0.00,WeatherDisplay:10.37,2013-10-04 23:50:00,
2013-10-04 19:00:00,68.5,62.8,29.24,SE,130,1.0,4.0,82,0.00,CLR,,0.00,WeatherDisplay:10.37,2013-10-05 00:00:00,
2013-10-04 19:10:00,67.5,61.8,29.24,ENE,73,1.0,4.0,82,0.00,CLR,,0.00,WeatherDisplay:10.37,2013-10-05 00:10:00,
2013-10-04 19:20:00,66.5,60.8,29.24,ESE,114,1.0,6.0,82,0.00,CLR,,0.00,WeatherDisplay:10.37,2013-10-05 00:20:00,
2013-10-04 19:30:00,66.0,61.0,29.25,NE,56,1.0,4.0,84,0.00,CLR,,0.00,WeatherDisplay:10.37,2013-10-05 00:30:00,
2013-10-04 19:40:00,65.9,60.9,29.25,SSE,152,0.0,3.0,84,0.00,CLR,,0.00,WeatherDisplay:10.37,2013-10-05 00:40:00,
2013-10-04 19:50:00,65.9,61.3,29.26,NNE,14,0.0,5.0,85,0.00,CLR,,0.00,WeatherDisplay:10.37,2013-10-05 00:50:00,
2013-10-04 20:00:00,65.7,61.1,29.26,East,80,1.0,5.0,85,0.00,CLR,,0.00,WeatherDisplay:10.37,2013-10-05 01:00:00,
2013-10-04 20:10:00,65.7,61.1,29.25,ESE,102,1.0,7.0,85,0.00,CLR,,0.00,WeatherDisplay:10.37,2013-10-05 01:10:00,
2013-10-04 20:20:00,65.7,61.1,29.25,ESE,121,1.0,3.0,85,0.00,CLR,,0.00,WeatherDisplay:10.37,2013-10-05 01:20:00,
2013-10-04 20:30:00,65.7,61.4,29.25,SSE,163,2.0,5.0,86,0.00,CLR,,0.00,WeatherDisplay:10.37,2013-10-05 01:30:00,
2013-10-04 20:40:00,65.6,61.3,29.25,SE,138,1.0,6.0,86,0.00,CLR,,0.00,WeatherDisplay:10.37,2013-10-05 01:40:00,
2013-10-04 20:50:00,65.6,61.3,29.25,SE,132,0.0,4.0,86,0.00,CLR,,0.00,WeatherDisplay:10.37,2013-10-05 01:50:00,
2013-10-04 21:00:00,65.6,61.3,29.26,ENE,77,2.0,5.0,86,0.00,CLR,,0.00,WeatherDisplay:10.37,2013-10-05 02:00:00,
2013-10-04 21:10:00,65.4,61.1,29.26,SE,137,1.0,4.0,86,0.00,CLR,,0.00,WeatherDisplay:10.37,2013-10-05 02:10:00,
2013-10-04 21:20:00,65.4,61.1,29.26,ESE,117,0.0,3.0,86,0.00,CLR,,0.00,WeatherDisplay:10.37,2013-10-05 02:20:00,
2013-10-04 21:30:00,65.4,61.1,29.26,SSE,159,0.0,4.0,86,0.00,CLR,,0.00,WeatherDisplay:10.37,2013-10-05 02:30:00,
2013-10-04 21:40:00,65.3,61.3,29.25,NW,317,0.0,3.0,87,0.00,CLR,,0.00,WeatherDisplay:10.37,2013-10-05 02:40:00,
2013-10-04 21:50:00,65.3,61.0,29.25,SSE,156,0.0,5.0,86,0.00,CLR,,0.00,WeatherDisplay:10.37,2013-10-05 02:50:00,
2013-10-04 22:00:00,65.1,60.8,29.25,SE,131,1.0,5.0,86,0.00,CLR,,0.00,WeatherDisplay:10.37,2013-10-05 03:00:00,
2013-10-04 22:10:00,65.1,60.8,29.25,SSE,158,0.0,8.0,86,0.00,CLR,,0.00,WeatherDisplay:10.37,2013-10-05 03:10:00,
2013-10-04 22:20:00,65.1,61.1,29.25,SE,136,1.0,4.0,87,0.00,CLR,,0.00,WeatherDisplay:10.37,2013-10-05 03:20:00,
2013-10-04 22:30:00,65.1,60.8,29.25,ESE,103,1.0,3.0,86,0.00,CLR,,0.00,WeatherDisplay:10.37,2013-10-05 03:30:00,
2013-10-04 22:40:00,65.1,61.1,29.24,ESE,111,0.0,5.0,87,0.00,CLR,,0.00,WeatherDisplay:10.37,2013-10-05 03:40:00,
2013-10-04 22:50:00,65.1,60.8,29.24,SE,131,0.0,3.0,86,0.00,CLR,,0.00,WeatherDisplay:10.37,2013-10-05 03:50:00,
2013-10-04 23:00:00,65.1,61.1,29.25,SE,142,0.0,1.0,87,0.00,CLR,,0.00,WeatherDisplay:10.37,2013-10-05 04:00:00,
2013-10-04 23:10:00,64.9,60.9,29.25,SE,142,0.0,2.0,87,0.00,CLR,,0.00,WeatherDisplay:10.37,2013-10-05 04:10:00,
2013-10-04 23:20:00,64.8,60.5,29.25,SE,141,0.0,2.0,86,0.00,CLR,,0.00,WeatherDisplay:10.37,2013-10-05 04:20:00,
2013-10-04 23:30:00,64.8,60.8,29.25,SE,141,0.0,1.0,87,0.00,CLR,,0.00,WeatherDisplay:10.37,2013-10-05 04:30:00,
2013-10-04 23:40:00,64.6,60.3,29.26,SE,141,0.0,2.0,86,0.00,CLR,,0.00,WeatherDisplay:10.37,2013-10-05 04:40:00,
2013-10-04 23:50:00,64.3,60.3,29.25,SE,141,0.0,0.0,87,0.00,CLR,,0.00,WeatherDisplay:10.37,2013-10-05 04:50:00,